Regional Weather Roundup
Issued by NWS

Home | Current Version | Previous Version | Text Only | Print | Product List | Glossary On
Versions: 1 2 3 4 5 6 7 8 9 10 11 12 13 14 15 16 17 18 19 20 21 22 23 24 25 26 27 28 29 30 31 32 33 34 35 36 37 38 39 40 41 42 43 44 45 46 47 48 49 50
000
ASUS43 KMKX 010700
RWRWI

WISCONSIN REGIONAL WEATHER ROUNDUP
NATIONAL WEATHER SERVICE MILWAUKEE/SULLIVAN WI
200 AM CDT WED JUL 01 2015

NOTE: "FAIR" INDICATES FEW OR NO CLOUDS BELOW 12,000 FEET WITH NO
SIGNIFICANT WEATHER AND/OR OBSTRUCTIONS TO VISIBILITY.

WIZ001-002-006>008-014>016-023>028-010800-
NORTHWEST WISCONSIN

CITY           SKY/WX    TMP DP  RH WIND       PRES   REMARKS
SUPERIOR ARPT  CLEAR     52  51  97 CALM      29.99F
ASHLAND        CLEAR     43  43 100 CALM      30.01R FOG
HAYWARD        CLEAR     46  43  89 CALM      30.00R
SIREN          PTCLDY    53  51  90 CALM      29.98F
CUMBERLAND     PTCLDY    52  50  93 E5        29.98F
RICE LAKE      PTCLDY    52  49  91 CALM      30.00F
CHETEK         PTCLDY    55  50  85 CALM      29.99S
LADYSMITH      CLEAR     48  46  90 NE3       30.01S
EAU CLAIRE     CLEAR     52  47  83 CALM      29.97R
MENOMONIE      PTCLDY    56  48  73 NE5       29.98S
NEW RICHMOND   PTCLDY    55  51  89 CALM      29.98F
OSCEOLA        PTCLDY    57  52  82 CALM      30.00F
$$

WIZ003>005-009-010-017-018-010800-
NORTH CENTRAL WISCONSIN

CITY           SKY/WX    TMP DP  RH WIND       PRES   REMARKS
MANITOWISH WTR CLEAR     40  40 100 CALM      29.99S
ARBOR VITAE    CLEAR     42  40  93 CALM      29.99S
WOODRUFF       CLEAR     42  40  93 CALM      29.99S
RHINELANDER    FOG       37  36  96 W3        29.99R VSB 1/2
EAGLE RIVER    PTCLDY    42  42 100 CALM      29.97F
LAND O LAKES   CLEAR     44  44  99 CALM      30.00S
PHILLIPS       PTCLDY    41  40  99 CALM      29.99S
TOMAHAWK       CLEAR     37  36  96 CALM      30.00R
MEDFORD        CLEAR     45  43  93 E3        29.98S
MERRILL        CLEAR     41  41  97 CALM      29.99R
$$

WIZ029-030-035-036-043>047-010800-
CENTRAL WISCONSIN

CITY           SKY/WX    TMP DP  RH WIND       PRES   REMARKS
WAUSAU         CLEAR     49  46  90 N5        29.97R
MOSINEE        PTCLDY    48  46  93 N5        29.98S
MARSHFIELD     PTCLDY    51  44  77 NE8       29.97S
STEVENS POINT  PTCLDY    47  45  91 N3        29.97S
WAUPACA        CLEAR     52  49  89 CALM      29.96S
WAUTOMA        NOT AVBL
WISC RAPIDS    PTCLDY    52  45  77 NE5       29.97S
CAMP DOUGLAS   NOT AVBL
$$

WIZ011>013-019>022-031-037>040-048>050-010800-
NORTHEAST WISCONSIN

CITY           SKY/WX    TMP DP  RH WIND       PRES   REMARKS
ANTIGO         CLEAR     43  42  98 CALM      29.97S
SHAWANO        CLEAR     51  46  84 NW6       29.95F
OCONTO         CLOUDY    51  48  90 NW6       29.93F
STURGEON BAY   CLOUDY    54  45  71 N9        29.94S
GREEN BAY      PTCLDY    51  47  86 NW7       29.93F
MANITOWOC      NOT AVBL
APPLETON       CLEAR     50  43  76 N7        29.95S
CLINTONVILLE   CLEAR     50  45  81 N3        29.95F
OSHKOSH        CLEAR     53  45  74 N8        29.94S
$$

WIZ032>034-041-042-053>061-010800-
SOUTHWEST WISCONSIN

CITY           SKY/WX    TMP DP  RH WIND       PRES   REMARKS
LA CROSSE      CLEAR     59  51  75 CALM      29.95R
SPARTA         CLEAR     47  47  97 CALM      29.97R
VIROQUA        CLEAR     56  53  90 NE6       29.95S
BOSCOBEL       CLEAR     53  52  96 CALM      29.94S FOG
PRAIRIE DU CHI CLEAR     58  55  90 CALM      29.93R
PLATTEVILLE    PTCLDY    56  55  94 N5        29.93S
$$

WIZ056-057-062-063-064-067-068-010800-
SOUTH CENTRAL WISCONSIN

CITY           SKY/WX    TMP DP  RH WIND       PRES   REMARKS
REEDSBURG      PTCLDY    57  53  85 N3        29.94R
BARABOO/DELLS  MOCLDY    57  53  84 NE7       29.94R
LONE ROCK      NOT AVBL
MINERAL POINT  PTCLDY    55  54  94 N5        29.93S
MADISON        CLOUDY    60  55  83 CALM      29.92R
MIDDLETON      PTCLDY    60  56  88 N3        29.93S
WATERTOWN      CLOUDY    56  56 100 E3        29.92F
MONROE         CLEAR     59  55  88 NE7       29.92S
JANESVILLE     MOCLDY    59  55  88 E3        29.92F
$$

WIZ051-052-058>065-066-070>072-010800-
SOUTHEAST WISCONSIN

CITY           SKY/WX    TMP DP  RH WIND       PRES   REMARKS
MILWAUKEE      CLOUDY    53  49  86 NE6       29.93F
WAUKESHA       MOCLDY    50  48  93 CALM      29.94S
MILWAUKEE/TIMM PTCLDY    52  46  82 CALM      29.93F
RACINE         CLOUDY    55  49  80 N7        29.94S
BURLINGTON     CLOUDY    53  50  92 E3        29.93S
KENOSHA        CLOUDY    53  50  89 N3        29.93S
FOND DU LAC    CLOUDY    57  49  74 N9        29.94S
SHEBOYGAN      CLEAR     52  50  93 NW5       29.93S
WEST BEND      MOCLDY    52  50  93 CALM      29.93S
JUNEAU         CLOUDY    58  55  90 CALM      29.94S
$$

LSZ147-162-010800-
LAKE SUPERIOR

STATION/POSITION TIME  TEMP    WIND        PRES    WAVE
                       AIR SEA DIR/SP/G            HT/PER
                 (UTC) (F)     (DEG/KT/KT) (MB)    (FT/S)
W MID LAKE BUOY  0550   45 38  330/  2/  4 1016.5S   1/ 5
DEVILS ISLAND    0500   54     100/  8/  8 1016.0F
SAXON HARBOR     0600   45        CALM     1015.6S
$$

LMZ867-665-643>646-010800-
LAKE MICHIGAN

STATION/POSITION TIME  TEMP    WIND        PRES    WAVE
                       AIR SEA DIR/SP/G            HT/PER
                 (UTC) (F)     (DEG/KT/KT) (MB)    (FT/S)
CHAMBERS ISLAND  0600   54     330/ 10/ 14 1013.5S
S GREEN BAY BUOY 0500   58 69  340/ 14/ 17 1014.8
N MID LAKE BUOY  0550   46 41  300/ 12/ 12 1012.7S   2/ 4
NORTHPORT PIER   0600   53     340/ 14/ 17 1013.2S
SISTER BAY       0614   53     360/ 15/ 20   N/A
ALGOMA LAKESHORE 0540          320/  9/ 11   N/A
KEWAUNEE LAKESHO 0600   56     340/  6/ 11 1012.6F
SHEBOYGAN LAKESH 0600   55     310/  6/  8 1013.7S
PORT WASHINGTON  0600   55     290/  3/  5 1014.2F
ATWATER BUOY     0600   55      10/  8/ 10 1014.8F
MILWAUKEE LAKESH 0600   54      20/  8/ 10   N/A
KENOSHA   LAKESH 0500   56      20/ 12/ 15 1013.2F
$$

TC  - TEMPERATURE IN CELSIUS
VSB - VISIBILITY IN STATUTE MILES
WCI - WIND CHILL INDEX
HX  - HEAT INDEX



USA.gov is the U.S. government's official web portal to all federal, state and local government web resources and services.